{"data":{"norad_id":60413,"intl_designator":"2024-141R","name":"STARLINK-32178","alt_names":[],"object_type":"PAYLOAD","status":"ACTIVE","operator":null,"country":"US","launch_date":"2024-08-10","launch_site_code":"AFETR","launch_vehicle":null,"mission":null,"orbit_class":"UNKNOWN","rcs_meters":null,"size_class":null,"mass_kg":null,"dimensions":null,"purposes":["comms"],"wikipedia_slug":null,"has_3d_model":false,"image_url":null,"decayed_at":null,"tle_current":{"epoch":"2026-09-21T17:00:03.918816Z","epoch_age_seconds":81176,"freshness":"FRESH","line1":"1 60413U 24141R   26264.70837869  .00000443  00000+0  24239-4 0  9998","line2":"2 60413  53.1602  47.7260 0001047  93.7363 266.3759 15.34385491119598","mean_motion":15.34385491,"eccentricity":0.0001047,"inclination_deg":53.1602,"raan_deg":47.726,"arg_perigee_deg":93.7363,"mean_anomaly_deg":266.3759,"bstar":2.4239e-5,"rev_number":11959,"period_min":93.848645496609,"perigee_km":462.0301238643,"apogee_km":463.4626048408,"semimajor_km":6840.8833643525,"source":"CELESTRAK","updated_at":"2026-09-22T09:00:49.231879Z"}}}